Location: Santa Cristina
(46.5667°N, 11.7167°E)
Time: 17:59:03
(UTC+00:00)

Okean 2 Rocket - Pass Details

Date: 21 April 2021
Orbit: 616 x 642 km, 82.5° (Epoch: 11 May)

Event Time Altitude Azimuth Distance (km) Brightness Sun altitude
Rises 01:55:29 0° 356° (N) 2,925 7.1 -21.0°
Reaches altitude 10° 01:57:49 10° 2° (N) 2,009 6.3 -20.8°
Maximum altitude 02:02:06 46° 77° (ENE) 838 4.1 -20.2°
Drops below altitude 10° 02:06:19 10° 151° (SSE) 1,980 5.5 -19.7°
Enters shadow 02:07:06 - 153° (SSE) 2,283 5.8 -19.6°
